This demonstration page uses our WeatherBlox Daily Observations layout. Learn more.

Left ArrowRight Arrow

53.62937, 11.41316

Hourly Observations for April 4, 2021

Temp ( °F °C ) Dew Point ( °F °C ) Humidity (%) Winds ( mph kmh ) Pressure ( in mb ) Visibility ( mi km ) Precip ( " mm )
7:50 am 07:50 Mostly Cloudy 37 3 36 2 93 93 SW 3 6 30.18 1022 30 48 N/A
8:20 am 08:20 Mostly Cloudy 39 4 36 2 87 87 SW 6 9 30.18 1022 30 48 N/A
8:50 am 08:50 Mostly Cloudy 39 4 36 2 87 87 SW 8 13 30.18 1022 30 48 N/A
9:20 am 09:20 Mostly Cloudy 41 5 36 2 81 81 SW 9 15 30.15 1021 30 48 N/A
9:50 am 09:50 Mostly Cloudy 41 5 36 2 81 81 SW 8 13 30.15 1021 30 48 N/A
10:20 am 10:20 Mostly Cloudy 41 5 36 2 81 81 SW 8 13 30.15 1021 30 48 N/A
10:50 am 10:50 Mostly Cloudy 41 5 36 2 81 81 SW 9 15 30.15 1021 30 48 N/A
11:20 am 11:20 Mostly Cloudy 41 5 36 2 81 81 SW 8 13 30.15 1021 30 48 N/A
11:50 am 11:50 Mostly Cloudy 43 6 36 2 76 76 SW 10 17 30.15 1021 30 48 N/A
12:20 pm 12:20 Mostly Cloudy 43 6 36 2 76 76 SW 13 20 30.12 1020 30 48 N/A
12:50 pm 12:50 Mostly Cloudy 45 7 37 3 76 76 SW 13 20 30.12 1020 30 48 N/A
1:20 pm 13:20 Mostly Cloudy 45 7 36 2 71 71 SW 12 19 30.12 1020 30 48 N/A
1:50 pm 13:50 Mostly Cloudy 45 7 36 2 71 71 WSW 12 19 30.09 1019 30 48 N/A
2:20 pm 14:20 Mostly Cloudy 45 7 36 2 71 71 SW 15 24 30.09 1019 30 48 N/A
2:50 pm 14:50 Mostly Cloudy 45 7 37 3 76 76 SW 14 22 30.06 1018 30 48 N/A
3:20 pm 15:20 Mostly Cloudy 46 8 37 3 71 71 SW 15 24 30.06 1018 30 48 N/A
3:50 pm 15:50 Mostly Cloudy 45 7 37 3 76 76 SW 16 26 30.03 1017 30 48 N/A
4:20 pm 16:20 Mostly Cloudy 45 7 37 3 76 76 SW 14 22 30.03 1017 30 48 N/A
4:50 pm 16:50 Mostly Cloudy 45 7 37 3 76 76 SW 17 28 30.03 1017 30 48 N/A
5:20 pm 17:20 Mostly Cloudy 45 7 37 3 76 76 SW 15 24 30.00 1016 30 48 N/A
5:50 pm 17:50 Mostly Cloudy 45 7 37 3 76 76 SW 15 24 30.00 1016 30 48 N/A
6:20 pm 18:20 Mostly Cloudy 45 7 37 3 76 76 SW 15 24 29.97 1015 30 48 N/A
6:50 pm 18:50 Mostly Cloudy 45 7 37 3 76 76 SW 15 24 29.97 1015 30 48 N/A
7:20 pm 19:20 Mostly Cloudy 45 7 37 3 76 76 SW 15 24 29.95 1014 30 48 N/A
7:50 pm 19:50 Mostly Cloudy 45 7 37 3 76 76 SW 17 28 29.95 1014 30 48 N/A
8:20 pm 20:20 Mostly Cloudy 45 7 37 3 76 76 SW 16 26 29.92 1013 30 48 N/A
8:50 pm 20:50 Mostly Cloudy 43 6 37 3 81 81 SW 16 26 29.89 1012 30 48 N/A
9:20 pm 21:20 Mostly Cloudy 45 7 37 3 76 76 SSW 17 28 29.89 1012 30 48 N/A
9:50 pm 21:50 Mostly Cloudy 43 6 37 3 81 81 SSW 16 26 29.86 1011 30 48 N/A

Powered by AerisWeather